• In Belarus
  • List of Countries
  • For 7 days
  • Water Temperature
  • Satellite Maps
  • Weather Map
  • Weather Widgets
  • user-avatar
    Login

    Hourly Weather Cygany

    Today, 20 February, Wednesday

    Time Temperature Precipitation Wind Pressure Humidity
    00:00 0°C° 0 mm 5 mps 736 mmHg 92%
    01:00 0°C° 0 mm 4 mps 735 mmHg 92%
    02:00 0°C° 0 mm 4 mps 735 mmHg 92%
    03:00 0°C° 0.1 mm 4 mps 735 mmHg 92%
    04:00 0°C° 0.1 mm 4 mps 735 mmHg 93%
    05:00 -1°C° 0.1 mm 4 mps 734 mmHg 93%
    06:00 -1°C° 0.1 mm 4 mps 734 mmHg 92%
    07:00 -1°C° 0.1 mm 4 mps 734 mmHg 92%
    08:00 -1°C° 0.1 mm 4 mps 734 mmHg 92%
    09:00 0°C° 0.1 mm 4 mps 734 mmHg 92%
    10:00 0°C° 0.1 mm 5 mps 734 mmHg 92%
    11:00 0°C° 0.1 mm 5 mps 734 mmHg 91%
    12:00 0°C° 0.1 mm 5 mps 733 mmHg 91%
    13:00 0°C° 0.1 mm 5 mps 733 mmHg 90%
    14:00 +1°C° 0.1 mm 5 mps 733 mmHg 89%
    15:00 0°C° 0.2 mm 5 mps 733 mmHg 89%
    16:00 0°C° 0.2 mm 5 mps 732 mmHg 89%
    17:00 0°C° 0.2 mm 5 mps 732 mmHg 88%
    18:00 0°C° 0.3 mm 5 mps 732 mmHg 85%
    19:00 -1°C° 0.3 mm 5 mps 732 mmHg 82%
    20:00 -1°C° 0.3 mm 5 mps 732 mmHg 78%
    21:00 -4°C° 0 mm 5 mps 733 mmHg 79%
    22:00 -5°C° 0 mm 5 mps 733 mmHg 79%
    23:00 -6°C° 0 mm 5 mps 733 mmHg 79%

    Tomorrow, 21 February, Thursday

    Time Temperature Precipitation Wind Pressure Humidity
    00:00 -6°C° 0.2 mm 6 mps 734 mmHg 78%
    01:00 -6°C° 0.2 mm 6 mps 735 mmHg 77%
    02:00 -6°C° 0.2 mm 6 mps 735 mmHg 76%
    03:00 -8°C° 0.1 mm 6 mps 735 mmHg 74%
    04:00 -8°C° 0.1 mm 6 mps 736 mmHg 72%
    05:00 -9°C° 0.1 mm 6 mps 736 mmHg 69%
    06:00 -9°C° 0.1 mm 6 mps 736 mmHg 71%
    07:00 -9°C° 0.1 mm 7 mps 737 mmHg 72%
    08:00 -9°C° 0.1 mm 7 mps 738 mmHg 74%
    09:00 -8°C° 0.1 mm 7 mps 738 mmHg 72%
    10:00 -8°C° 0.1 mm 7 mps 739 mmHg 70%
    11:00 -8°C° 0.1 mm 7 mps 739 mmHg 68%
    12:00 -8°C° 0 mm 7 mps 740 mmHg 67%
    13:00 -8°C° 0 mm 6 mps 741 mmHg 66%
    14:00 -8°C° 0 mm 6 mps 741 mmHg 65%
    15:00 -8°C° 0 mm 6 mps 742 mmHg 66%
    16:00 -9°C° 0 mm 6 mps 742 mmHg 67%
    17:00 -8°C° 0 mm 5 mps 743 mmHg 68%
    18:00 -10°C° 0 mm 5 mps 743 mmHg 69%
    19:00 -10°C° 0 mm 5 mps 744 mmHg 69%
    20:00 -11°C° 0 mm 5 mps 744 mmHg 70%
    21:00 -12°C° 0 mm 5 mps 745 mmHg 70%
    22:00 -12°C° 0 mm 5 mps 745 mmHg 71%
    23:00 -11°C° 0 mm 4 mps 746 mmHg 71%

    Day after tomorrow, 22 February, Friday

    Time Temperature Precipitation Wind Pressure Humidity
    00:00 -12°C° 0 mm 4 mps 746 mmHg 71%
    01:00 -12°C° 0 mm 4 mps 747 mmHg 71%
    02:00 -12°C° 0 mm 4 mps 747 mmHg 71%
    03:00 -12°C° 0 mm 4 mps 748 mmHg 71%
    04:00 -14°C° 0 mm 5 mps 748 mmHg 71%
    05:00 -14°C° 0 mm 5 mps 749 mmHg 71%
    06:00 -14°C° 0 mm 5 mps 749 mmHg 71%
    07:00 -14°C° 0 mm 5 mps 750 mmHg 71%
    08:00 -14°C° 0 mm 5 mps 750 mmHg 71%
    09:00 -14°C° 0 mm 6 mps 751 mmHg 67%
    10:00 -12°C° 0 mm 6 mps 751 mmHg 64%
    11:00 -13°C° 0 mm 7 mps 751 mmHg 61%
    12:00 -12°C° 0 mm 7 mps 751 mmHg 61%
    13:00 -12°C° 0 mm 7 mps 751 mmHg 60%
    14:00 -12°C° 0 mm 7 mps 752 mmHg 60%
    15:00 -12°C° 0 mm 7 mps 752 mmHg 60%
    16:00 -12°C° 0 mm 7 mps 752 mmHg 61%
    17:00 -11°C° 0 mm 6 mps 753 mmHg 61%
    18:00 -11°C° 0 mm 6 mps 753 mmHg 64%
    19:00 -11°C° 0 mm 6 mps 754 mmHg 66%
    20:00 -12°C° 0 mm 6 mps 754 mmHg 68%
    21:00 -12°C° 0 mm 5 mps 755 mmHg 70%
    22:00 -12°C° 0 mm 5 mps 755 mmHg 71%
    23:00 -12°C° 0 mm 5 mps 755 mmHg 73%

    23 February, Saturday

    Time Temperature Precipitation Wind Pressure Humidity
    00:00 -13°C° 0 mm 5 mps 756 mmHg 74%
    01:00 -13°C° 0 mm 5 mps 756 mmHg 76%
    02:00 -13°C° 0 mm 5 mps 756 mmHg 78%
    03:00 -14°C° 0 mm 4 mps 756 mmHg 79%
    04:00 -14°C° 0 mm 4 mps 757 mmHg 80%
    05:00 -14°C° 0 mm 4 mps 757 mmHg 81%
    06:00 -14°C° 0 mm 4 mps 757 mmHg 81%
    07:00 -14°C° 0 mm 4 mps 757 mmHg 81%
    08:00 -13°C° 0 mm 3 mps 758 mmHg 81%
    09:00 -12°C° 0 mm 3 mps 758 mmHg 76%
    10:00 -10°C° 0 mm 3 mps 758 mmHg 70%
    11:00 -9°C° 0 mm 3 mps 758 mmHg 65%
    12:00 -9°C° 0 mm 3 mps 758 mmHg 63%
    13:00 -8°C° 0 mm 3 mps 758 mmHg 60%
    14:00 -7°C° 0 mm 3 mps 758 mmHg 58%
    15:00 -7°C° 0 mm 2 mps 757 mmHg 62%
    16:00 -7°C° 0 mm 2 mps 757 mmHg 67%
    17:00 -6°C° 0 mm 1 mps 757 mmHg 71%
    18:00 -6°C° 0 mm 1 mps 756 mmHg 73%
    19:00 -6°C° 0 mm 1 mps 756 mmHg 75%
    20:00 -7°C° 0 mm 2 mps 756 mmHg 77%
    21:00 -7°C° 0 mm 2 mps 756 mmHg 79%
    22:00 -7°C° 0 mm 2 mps 755 mmHg 81%
    23:00 -6°C° 0 mm 2 mps 755 mmHg 82%

    24 February, Sunday

    Time Temperature Precipitation Wind Pressure Humidity
    00:00 -6°C° 0.4 mm 2 mps 754 mmHg 86%
    01:00 -6°C° 0.4 mm 2 mps 754 mmHg 89%
    02:00 -6°C° 0.4 mm 2 mps 754 mmHg 93%
    03:00 -6°C° 0.1 mm 2 mps 753 mmHg 94%
    04:00 -5°C° 0.1 mm 2 mps 753 mmHg 94%
    05:00 -3°C° 0.1 mm 1 mps 753 mmHg 95%
    06:00 -3°C° 0.1 mm 1 mps 753 mmHg 96%
    07:00 -3°C° 0.1 mm 1 mps 753 mmHg 96%
    08:00 -2°C° 0.1 mm 1 mps 753 mmHg 96%
    09:00 -1°C° 0 mm 1 mps 753 mmHg 94%
    10:00 0°C° 0 mm 1 mps 754 mmHg 93%
    11:00 0°C° 0 mm 1 mps 754 mmHg 91%
    12:00 +1°C° 0 mm 1 mps 754 mmHg 91%
    13:00 +1°C° 0 mm 1 mps 754 mmHg 91%
    14:00 +2°C° 0 mm 1 mps 754 mmHg 91%
    15:00 +1°C° 0 mm 1 mps 754 mmHg 93%
    16:00 +1°C° 0 mm 1 mps 754 mmHg 94%
    17:00 0°C° 0 mm 1 mps 754 mmHg 96%
    18:00 0°C° 0 mm 1 mps 754 mmHg 96%
    19:00 -1°C° 0 mm 1 mps 754 mmHg 96%
    20:00 -2°C° 0 mm 1 mps 753 mmHg 96%
    21:00 -2°C° 0 mm 1 mps 753 mmHg 97%
    22:00 -2°C° 0 mm 1 mps 753 mmHg 97%
    23:00 -4°C° 0 mm 2 mps 753 mmHg 97%

    25 February, Monday

    Time Temperature Precipitation Wind Pressure Humidity
    00:00 -3°C° 0 mm 2 mps 752 mmHg 96%
    01:00 -3°C° 0 mm 2 mps 752 mmHg 95%
    02:00 -4°C° 0 mm 3 mps 752 mmHg 95%
    03:00 -2°C° 0 mm 3 mps 751 mmHg 94%
    04:00 -2°C° 0 mm 3 mps 750 mmHg 94%
    05:00 -3°C° 0 mm 4 mps 750 mmHg 93%
    06:00 -3°C° 0.1 mm 4 mps 749 mmHg 93%
    07:00 -2°C° 0.1 mm 4 mps 749 mmHg 94%
    08:00 -2°C° 0.1 mm 4 mps 748 mmHg 94%
    09:00 -2°C° 0 mm 4 mps 748 mmHg 94%
    10:00 0°C° 0 mm 3 mps 748 mmHg 93%
    11:00 0°C° 0 mm 3 mps 747 mmHg 93%
    12:00 0°C° 0 mm 4 mps 747 mmHg 90%
    13:00 0°C° 0 mm 4 mps 746 mmHg 87%
    14:00 0°C° 0 mm 4 mps 746 mmHg 85%
    15:00 0°C° 0.1 mm 4 mps 746 mmHg 85%
    16:00 0°C° 0.1 mm 3 mps 745 mmHg 85%
    17:00 0°C° 0.1 mm 3 mps 745 mmHg 86%
    18:00 -1°C° 0 mm 3 mps 745 mmHg 86%
    19:00 -1°C° 0 mm 3 mps 745 mmHg 86%
    20:00 -2°C° 0 mm 4 mps 744 mmHg 87%
    21:00 -2°C° 0 mm 4 mps 744 mmHg 87%
    22:00 -2°C° 0 mm 4 mps 744 mmHg 86%
    23:00 -2°C° 0 mm 4 mps 744 mmHg 86%
    Show more